Location: *
(49.6619°S, 177.4603°W)
Time: 05:45:45
(UTC+00:00)

ERS-1 Rocket - Pass Details

Date: 31 January 2023
Orbit: 751 x 757 km, 98.3° (Epoch: 01 April)

Event Time Altitude Azimuth Distance (km) Brightness Sun altitude
Rises 09:31:05 0° 159° (SSE) 3,246 6.7 -15.0°
Reaches altitude 10° 09:33:38 10° 148° (SSE) 2,313 5.8 -15.2°
Maximum altitude 09:38:12 32° 85° (E) 1,290 3.8 -15.7°
Enters shadow 09:40:01 25° 48° (NE) 1,498 3.9 -15.8°
